User: anonymous   Login
Location: *
(49.5667°N, 1.3667°W)
Time: 13:56:34
(UTC+00:00)
Language:

CZ-4C R/B - Orbit

View from above orbital plane
View from above orbital plane
View from above satellite
View from above satellite

Ground track
Ground track

The orbit data is extracted from the following two-line orbital elements,

1 36416U 10009D   19321.79031303 -.00000078 +00000-0 +14178-4 0  9993
2 36416 063.4299 052.4863 0473756 355.2405 004.4206 13.69554794485229
Epoch (UTC): 17 November 2019 18:58:03
Eccentricity: 0.0473756
inclination: 63.4299°
perigee height: 651 km
apogee height: 1351 km
right ascension of ascending node: 52.4863°
argument of perigee: 355.2405°
revolutions per day: 13.69554794
mean anomaly at epoch: 4.4206°
orbit number at epoch: 48522

The dashed part of the orbit path shows where the satellite is in the earth's shadow,  

DLR